Terminal Aerodrome Forecast
Issued by NWS Atlanta, GA

Home | Current Version | Previous Version | Text Only | Print | Product List | Glossary On
Versions: 1 2 3 4 5 6 7 8 9 10 11 12 13 14 15 16 17 18 19 20 21 22 23 24 25 26 27 28 29 30 31 32 33 34 35 36 37 38 39 40 41 42
000
FTUS42 KFFC 300346 AAB
TAFATL
TAF AMD
KATL 300346Z 3004/3106 11003KT P6SM FEW250
     FM300900 10003KT P6SM SCT012
     FM301400 14006KT P6SM SCT025
     FM302000 14007KT P6SM BKN035
     FM310200 15005KT P6SM FEW060=

USA.gov is the U.S. government's official web portal to all federal, state and local government web resources and services.